KD0QNG Weather Reports


time (UTC)temp
C
wind
direction
speed
KPH
gust
KPH
rain 1hr
cm
rain 24hr
cm
rain mn
cm
humidity
%
barometer
mb
20260510143848 13 0.0 0.0 0.00 0.00 0.00 59 1024.6
20260510142810 13 0.0 0.0 0.00 0.00 0.00 57 1024.4
20260510141905 13 0.0 0.0 0.00 0.00 0.00 59 1024.4
20260510140810 13 0.0 0.0 0.00 0.00 0.00 59 1023.9
20260510135925 13 0.0 0.0 0.00 0.00 0.00 60 1024.3
20260510134827 13 50 1.6 1.6 0.00 0.00 0.00 58 1024.0
20260510133835 13 58 1.6 1.6 0.00 0.00 0.00 59 1023.6
20260510132757 13 84 1.6 1.6 0.00 0.00 0.00 60 1023.6
20260510131849 13 40 1.6 1.6 0.00 0.00 0.00 60 1023.5
20260510130754 13 198 4.8 4.8 0.00 0.00 0.00 61 1023.0
20260510125906 13 42 3.2 4.8 0.00 0.00 0.00 63 1022.7
20260510124824 13 326 3.2 3.2 0.00 0.00 0.00 64 1022.0
20260510123916 13 5 3.2 4.8 0.00 0.00 0.00 65 1021.9
20260510122818 13 132 3.2 3.2 0.00 0.00 0.00 67 1022.0
20260510121933 13 349 3.2 3.2 0.00 0.00 0.00 67 1021.3
20260510120732 14 78 1.6 1.6 0.00 0.00 0.00 66 1021.1
20260510115843 14 53 3.2 3.2 0.00 0.00 0.00 66 1020.4
20260510114749 14 22 3.2 3.2 0.00 0.00 0.00 66 1019.8
20260510113858 14 42 4.8 8.0 0.00 0.00 0.00 67 1019.9
20260510112800 14 61 1.6 3.2 0.00 0.00 0.00 68 1019.5
20260510111911 14 35 4.8 4.8 0.00 0.00 0.00 69 1019.3
20260510110813 14 21 4.8 4.8 0.00 0.00 0.00 69 1018.9
20260510110048 14 50 1.6 1.6 0.00 0.00 0.00 70 1019.5
20260510104833 14 44 3.2 4.8 0.00 0.00 0.00 71 1019.3
20260510103842 14 35 6.4 9.7 0.00 0.00 0.00 72 1019.2
20260510102747 15 324 1.6 3.2 0.00 0.00 0.00 70 1019.0
20260510101859 15 53 3.2 3.2 0.00 0.00 0.00 68 1018.6
20260510100801 15 56 0.0 1.6 0.00 0.00 0.00 68 1018.3
20260510095952 15 202 1.6 3.2 0.00 0.00 0.00 67 1018.5
20260510094817 15 166 3.2 3.2 0.00 0.00 0.00 67 1018.0
20260510093932 15 41 0.0 1.6 0.00 0.00 0.00 67 1017.8
20260510092731 15 52 3.2 3.2 0.00 0.00 0.00 67 1018.1
20260510091842 15 0.0 0.0 0.00 0.00 0.00 68 1017.9
20260510090747 15 0.0 0.0 0.00 0.00 0.00 68 1017.5
20260510085939 15 140 0.0 1.6 0.00 0.00 0.00 68 1017.9
20260510084815 15 0.0 0.0 0.00 0.00 0.00 67 1017.6
20260510083910 15 0.0 0.0 0.00 0.00 0.00 66 1017.6
20260510082811 16 0.0 0.0 0.00 0.00 0.00 66 1017.5
20260510081923 16 130 0.0 1.6 0.00 0.00 0.00 67 1017.4
20260510080825 16 0.0 0.0 0.00 0.00 0.00 67 1017.3
20260510075555 16 0.0 0.0 0.00 0.00 0.00 67 1017.4
20260510074710 16 75 1.6 3.2 0.00 0.00 0.00 68 1017.3
20260510073612 16 0.0 0.0 0.00 0.00 0.00 67 1017.2
20260510072727 16 0.0 0.0 0.00 0.00 0.00 66 1016.9
20260510071632 16 0.0 0.0 0.00 0.00 0.00 65 1016.7
20260510070701 17 0.0 0.0 0.00 0.00 0.00 65 1016.6
20260510065542 17 0.0 0.0 0.00 0.00 0.00 66 1016.6
20260510064653 17 0.0 0.0 0.00 0.00 0.00 65 1016.1
20260510063636 17 0.0 0.0 0.00 0.00 0.00 66 1016.3
20260510062730 17 0.0 0.0 0.00 0.00 0.00 65 1016.2
20260510061632 17 0.0 0.0 0.00 0.00 0.00 65 1016.1
20260510060727 17 0.0 0.0 0.00 0.00 0.00 65 1015.7
20260510055632 18 135 0.0 1.6 0.00 0.00 0.00 64 1015.5
20260510054641 18 31 0.0 1.6 0.00 0.00 0.00 64 1015.6
20260510053543 18 109 3.2 3.2 0.00 0.00 0.00 63 1015.1
20260510052655 18 0.0 0.0 0.00 0.00 0.00 64 1015.1
20260510051557 18 0.0 0.0 0.00 0.00 0.00 64 1015.4
20260510050732 18 0.0 0.0 0.00 0.00 0.00 64 1015.3
20260510045606 18 0.0 0.0 0.00 0.00 0.00 66 1015.1
20260510044604 18 0.0 0.0 0.00 0.00 0.00 66 1015.3
20260510043603 18 0.0 0.0 0.00 0.00 0.00 67 1015.1
20260510042605 17 0.0 0.0 0.00 0.00 0.00 68 1015.0
20260510041604 17 0.0 0.0 0.00 0.00 0.00 67 1015.2
20260510040602 18 0.0 0.0 0.00 0.00 0.00 67 1014.6
20260510035603 18 0.0 0.0 0.00 0.00 0.00 66 1015.1
20260510034605 18 0.0 0.0 0.00 0.00 0.00 63 1015.1
20260510033603 18 0.0 0.0 0.00 0.00 0.00 63 1015.1
20260510032605 19 0.0 0.0 0.00 0.00 0.00 60 1014.6
20260510031607 20 0.0 0.0 0.00 0.00 0.00 59 1014.6
20260510030637 20 0.0 0.0 0.00 0.00 0.00 59 1014.2
20260510025558 20 0.0 0.0 0.00 0.00 0.00 57 1013.7
20260510024556 21 0.0 0.0 0.00 0.00 0.00 56 1013.3
20260510023554 21 0.0 0.0 0.00 0.00 0.00 55 1012.8
20260510022550 21 135 0.0 1.6 0.00 0.00 0.00 54 1012.0
20260510021607 21 87 3.2 4.8 0.00 0.00 0.00 54 1012.0
20260510020544 22 36 1.6 3.2 0.00 0.00 0.00 53 1013.0
20260510015546 22 63 1.6 4.8 0.00 0.00 0.00 52 1013.1
20260510014539 22 0.0 0.0 0.00 0.00 0.00 51 1013.5
20260510013540 22 0.0 0.0 0.00 0.00 0.00 49 1013.8
20260510012542 23 0.0 0.0 0.00 0.00 0.00 49 1013.2
20260510011539 23 0.0 0.0 0.00 0.00 0.00 48 1012.9
20260510010537 23 0.0 0.0 0.00 0.00 0.00 46 1012.5
20260510005510 23 0.0 0.0 0.00 0.00 0.00 46 1011.1
20260510004511 23 0.0 0.0 0.00 0.00 0.00 47 1010.6
20260510003512 23 0.0 0.0 0.00 0.00 0.00 54 1010.4
20260510002534 24 0.0 0.0 0.00 0.00 0.00 56 1010.0
20260510001509 25 0.0 0.0 0.00 0.00 0.00 52 1010.0
20260510000545 25 0.0 0.0 0.00 0.00 0.00 50 1009.8
20260509235504 25 0.0 0.0 0.00 0.00 0.00 53 1010.0
20260509234505 25 0.0 0.0 0.00 0.00 0.00 51 1010.0
20260509233504 25 0.0 0.0 0.00 0.00 0.00 44 1010.1
20260509232448 26 0.0 0.0 0.00 0.00 0.00 43 1010.0
20260509231438 26 0.0 0.0 0.00 0.00 0.00 42 1010.2
20260509230439 26 0.0 0.0 0.00 0.00 0.00 42 1010.4
20260509225437 26 0.0 0.0 0.00 0.00 0.00 43 1010.3
20260509224430 26 0.0 0.0 0.00 0.00 0.00 42 1010.4
20260509223443 27 0.0 0.0 0.00 0.00 0.00 36 1010.2
20260509222458 27 0.0 0.0 0.00 0.00 0.00 33 1010.2
20260509221416 27 0.0 0.0 0.00 0.00 0.00 35 1010.0
20260509220418 27 0.0 0.0 0.00 0.00 0.00 30 1010.3
20260509215420 28 179 3.2 4.8 0.00 0.00 0.00 31 1010.0
20260509202727 30 0.0 0.0 0.00 0.00 0.00 29 1010.6
20260509201713 28 0.0 0.0 0.00 0.00 0.00 29 1011.1
20260509200731 30 0.0 0.0 0.00 0.00 0.00 29 1011.1
20260509195732 29 0.0 0.0 0.00 0.00 0.00 27 1011.2
20260509194710 29 0.0 0.0 0.00 0.00 0.00 28 1011.3
20260509193708 28 0.0 0.0 0.00 0.00 0.00 31 1011.4
20260509192721 28 0.0 0.0 0.00 0.00 0.00 31 1011.5
20260509191650 28 235 4.8 4.8 0.00 0.00 0.00 32 1011.3
20260509190651 28 188 1.6 3.2 0.00 0.00 0.00 33 1011.5
20260509185653 28 232 4.8 4.8 0.00 0.00 0.00 30 1011.7
20260509184644 27 257 4.8 4.8 0.00 0.00 0.00 32 1011.9
20260509183638 27 296 6.4 8.0 0.00 0.00 0.00 31 1011.7
20260509182640 28 247 4.8 4.8 0.00 0.00 0.00 30 1012.1
20260509181627 28 219 6.4 9.7 0.00 0.00 0.00 31 1012.2
20260509180625 28 227 11.3 12.9 0.00 0.00 0.00 32 1012.2
20260509175619 28 265 11.3 12.9 0.00 0.00 0.00 33 1012.2
20260509174618 28 246 9.7 12.9 0.00 0.00 0.00 34 1012.7
20260509173626 27 259 9.7 11.3 0.00 0.00 0.00 36 1013.0
20260509172607 26 289 11.3 12.9 0.00 0.00 0.00 38 1013.1
20260509171552 26 306 4.8 4.8 0.00 0.00 0.00 39 1013.5
20260509170610 26 167 4.8 4.8 0.00 0.00 0.00 41 1013.3
20260509165538 26 299 12.9 12.9 0.00 0.00 0.00 39 1013.5
20260509164538 26 257 11.3 14.5 0.00 0.00 0.00 38 1013.5
20260509163557 26 294 8.0 9.7 0.00 0.00 0.00 39 1013.4
20260509162539 26 298 6.4 11.3 0.00 0.00 0.00 42 1013.6
20260509161538 25 279 6.4 8.0 0.00 0.00 0.00 45 1013.3
20260509160541 25 262 4.8 11.3 0.00 0.00 0.00 45 1013.0
20260509155517 25 242 6.4 9.7 0.00 0.00 0.00 44 1013.1
20260509154513 25 241 6.4 8.0 0.00 0.00 0.00 46 1013.1
20260509153534 24 232 6.4 8.0 0.00 0.00 0.00 48 1013.4
20260509152453 23 253 9.7 11.3 0.00 0.00 0.00 49 1013.3
20260509151451 23 227 9.7 14.5 0.00 0.00 0.00 48 1013.0
20260509150513 22 228 9.7 12.9 0.00 0.00 0.00 50 1013.2
20260509145451 22 228 4.8 4.8 0.00 0.00 0.00 53 1013.1
20260509144445 21 277 9.7 11.3 0.00 0.00 0.00 54 1013.0